Probability
7 9 13 20 30 37 39 37 34 34 39 43 43 39 29 19 12 9 5 2 1 0 0 0 1 1 0 0 0 0 0 0 0 0 0 0 0 0 0 0 0 0 0
4 6 10 17 26 35 38 37 35 34 38 41 42 39 32 23 17 12 7 3 1 0 0 0 1 2 1 0 0 0 0 0 0 0 0 0 0 0 0 0 0 0 0
1 3 6 11 19 29 35 36 34 32 32 33 36 37 35 29 23 21 16 9 3 1 0 0 2 3 2 2 1 1 1 1 1 0 0 0 0 0 0 0 0 0 0
0 1 2 5 10 18 27 31 30 27 24 25 28 33 35 31 28 27 24 16 8 3 2 1 2 3 3 4 4 3 3 3 2 1 0 0 0 0 0 0 0 0 0
0 0 0 1 3 8 15 22 24 23 21 20 22 27 29 29 28 27 24 19 12 7 4 3 2 2 3 5 5 4 4 3 2 1 0 0 0 0 0 0 0 0 0
0 0 0 0 1 3 7 12 15 17 19 19 18 19 20 23 24 22 20 19 16 11 6 3 2 1 2 4 5 4 3 3 1 1 0 0 0 0 0 0 0 0 0
0 0 0 0 0 1 2 5 8 11 15 17 16 14 16 18 19 18 17 17 16 13 8 5 3 3 3 4 5 5 4 2 1 0 0 0 0 0 0 0 0 0 0
0 0 0 0 0 0 0 2 3 6 10 13 12 13 15 17 18 17 16 16 15 12 10 7 6 5 5 4 5 5 4 2 1 0 0 0 0 0 0 0 0 0 0
0 0 0 0 0 0 0 0 1 4 7 8 8 10 12 15 16 16 14 13 11 10 9 8 7 6 5 4 4 3 3 2 1 0 0 0 0 0 0 0 0 0 0
0 0 0 0 0 0 0 0 0 1 3 4 5 6 7 9 10 10 9 8 8 7 7 7 7 6 5 3 3 2 1 1 0 0 0 0 0 0 0 0 0 0 0
0 0 0 0 0 0 0 0 0 0 1 2 4 4 4 4 3 4 4 4 4 5 6 6 5 5 3 2 1 1 0 0 0 0 0 0 0 0 0 0 0 0 0
0 0 0 0 0 0 0 0 0 0 0 2 3 3 2 1 0 0 1 1 2 3 3 3 3 2 1 0 0 0 0 0 0 0 0 0 0 0 0 0 0 0 0
0 0 0 0 0 0 0 0 0 0 1 2 2 1 1 0 0 0 0 0 1 1 1 1 1 0 0 0 0 0 0 0 0 0 0 0 0 0 0 0 0 0 0
0 0 0 0 0 0 0 0 0 0 1 1 1 0 0 0 0 0 0 0 0 0 0 0 0 0 0 0 0 0 0 0 0 0 0 0 0 0 0 0 0 0 0
0 0 0 0 0 0 0 0 0 0 0 0 0 0 0 0 0 0 0 0 0 0 0 0 0 0 0 0 0 0 0 0 0 0 0 0 0 0 0 0 0 0 0
0 0 0 0 0 0 0 0 0 0 0 0 0 0 0 0 0 0 0 0 0 0 0 0 0 0 0 0 0 0 0 0 0 0 0 0 0 0 0 0 0 0 0
0 0 0 0 0 0 0 0 0 0 0 0 0 0 0 0 0 0 0 0 0 0 0 0 0 0 0 0 0 0 0 0 0 0 0 0 0 0 0 0 0 0 0
0 0 0 0 0 0 0 0 0 0 0 0 0 0 0 0 0 0 0 0 0 0 0 0 0 0 0 0 0 0 0 0 0 0 0 0 0 0 0 0 0 0 0
0 0 0 0 0 0 0 0 0 0 0 0 0 0 0 0 0 0 0 0 0 0 0 0 0 0 0 0 0 0 0 0 0 0 0 0 0 0 0 0 0 0 0
0 0 0 0 0 0 0 0 0 0 0 0 0 0 0 0 0 0 0 0 0 0 0 0 0 0 0 0 0 0 0 0 0 0 0 0 0 0 0 0 0 0 0
0 0 0 0 0 0 0 0 0 0 0 0 0 0 0 0 0 0 0 0 0 0 0 0 0 0 0 0 0 0 0 0 0 0 0 0 0 0 0 0 0 0 0
0 0 0 0 0 0 0 0 0 0 0 0 0 0 0 0 0 0 0 0 0 0 0 0 0 0 0 0 0 0 0 0 0 0 0 0 0 0 0 0 0 0 0
0 0 0 0 0 0 0 0 0 0 0 0 0 0 0 0 0 0 0 0 0 0 0 0 0 0 0 0 0 0 0 0 0 0 0 0 0 0 0 0 0 0 0
0 0 0 0 0 0 0 0 0 0 0 0 0 0 0 0 0 0 0 0 0 0 0 0 0 0 0 0 0 0 0 0 0 0 0 0 0 0 0 0 0 0 0
0 0 0 0 0 0 0 0 0 0 0 0 0 0 0 0 0 0 0 0 0 0 0 0 0 0 0 0 0 0 0 0 0 0 0 0 0 0 0 0 0 0 0
0 0 0 0 0 0 0 0 0 0 0 0 0 0 0 0 0 0 0 0 0 0 0 0 0 0 0 0 0 0 0 0 0 0 0 0 0 0 0 0 0 0 0
Wind_Speed
8 6 6 7 8 9 10 11 11 10 8 7 7 6 6 6 5 5 6 7 7 8 8 6 7 7 6 7 8 6 7 6 5 4 6 7 8 8 7 6 6 6 5
9 7 6 7 8 9 10 10 10 10 10 8 7 5 5 5 5 5 6 6 7 7 6 7 6 6 6 8 8 7 5 5 5 4 5 5 5 6 5 4 4 5 3
12 10 8 7 7 8 9 8 9 9 9 9 6 4 3 3 4 6 5 6 6 6 6 7 6 6 6 6 8 8 8 7 6 6 6 5 5 2 3 3 3 2 2
12 10 9 8 8 7 6 7 7 8 8 8 8 9 7 7 6 5 4 4 5 5 5 6 6 6 6 7 7 7 7 8 6 5 7 8 6 5 4 2 2 2 2
13 11 10 8 7 6 6 6 6 6 6 7 8 8 7 5 4 4 5 5 4 3 3 4 4 5 5 6 6 6 7 6 7 6 5 6 6 7 6 6 4 3 1
13 12 9 7 6 6 6 6 6 6 5 6 7 7 7 6 6 6 5 4 3 3 2 3 3 4 4 5 5 5 7 6 7 6 5 5 5 5 6 7 6 4 1
12 12 11 10 9 8 7 7 7 6 6 6 5 5 5 5 6 5 5 4 3 3 2 2 3 3 4 4 4 5 5 5 6 6 5 5 5 4 4 5 4 3 1
11 11 11 10 9 9 8 8 8 7 6 6 5 4 4 3 3 3 3 3 2 2 2 2 2 3 3 3 3 3 3 3 4 4 4 3 2 2 3 3 3 3 3
10 10 10 10 10 9 8 8 8 7 6 5 5 4 4 3 3 3 2 2 1 1 1 1 1 1 1 1 1 1 2 1 1 1 1 1 0 0 0 1 2 3 4
7 8 8 9 9 8 8 7 7 7 6 5 4 3 3 3 3 3 3 2 2 1 1 1 0 0 0 0 0 1 1 2 1 1 2 2 1 2 1 1 0 1 2
7 8 8 8 8 8 8 8 7 7 6 5 5 5 4 3 3 2 2 2 1 1 1 1 1 1 1 1 1 2 2 3 3 3 3 3 3 2 2 2 1 1 0
6 7 8 9 9 8 8 8 7 7 6 5 5 5 4 4 3 3 3 2 2 2 1 1 2 2 2 2 2 3 3 3 4 4 4 4 3 4 3 2 3 2 1
6 8 8 9 9 8 8 7 7 6 6 6 5 5 4 4 3 3 3 3 2 2 2 2 2 3 3 3 3 4 4 5 5 5 5 5 5 5 4 4 4 3 3
7 8 8 9 8 8 8 8 7 7 6 6 5 5 4 4 4 4 3 3 3 3 3 3 3 3 3 4 4 5 6 6 6 6 6 5 5 5 5 4 4 3 4
8 9 10 9 9 9 8 8 7 7 7 6 5 5 5 4 4 4 4 4 4 4 4 4 4 4 3 3 5 6 6 7 7 7 6 6 7 7 5 4 4 4 3
10 10 10 10 10 10 9 9 8 8 7 7 6 6 5 5 5 4 4 4 4 4 4 4 4 4 3 6 7 6 6 6 7 7 6 7 7 9 10 9 8 6 3
10 11 11 11 11 11 10 10 9 9 8 7 7 6 6 6 5 5 5 4 4 4 4 4 4 4 6 8 8 8 6 6 5 5 5 4 5 6 6 7 8 8 8
9 10 10 10 10 9 9 9 9 9 9 8 7 7 7 6 6 5 5 5 4 4 4 4 4 5 6 8 9 9 6 6 5 5 5 4 4 4 4 4 4 4 5
7 7 8 8 8 9 10 10 10 9 9 9 8 8 8 7 7 6 6 5 5 4 4 4 4 5 6 8 9 7 5 5 5 4 3 3 3 5 4 3 3 3 4
3 4 5 6 8 9 10 11 10 10 10 9 8 8 8 8 7 7 6 5 5 5 4 4 4 4 5 7 8 6 3 4 4 4 3 2 2 4 3 2 3 2 2
1 3 5 6 6 8 10 10 10 10 9 8 8 8 8 7 7 6 6 6 6 5 5 5 4 4 4 7 8 7 3 3 4 3 3 2 2 3 3 2 2 1 1
2 3 4 4 5 8 9 9 8 7 7 8 8 8 8 7 6 7 6 6 7 6 6 5 5 4 4 4 6 7 5 4 3 3 3 3 3 3 3 3 2 2 2
2 2 3 4 4 6 7 7 6 7 8 8 8 8 8 7 7 8 8 7 6 6 5 5 5 4 4 5 7 8 8 7 4 2 3 4 4 4 4 4 3 3 3
2 2 3 3 3 5 6 5 6 8 9 9 8 8 8 7 7 6 6 6 7 6 6 6 6 5 5 5 5 5 6 7 5 4 4 5 4 4 4 4 4 3 3
1 1 2 2 3 4 5 5 6 8 8 8 8 7 7 7 7 7 6 8 7 7 7 6 6 6 6 8 10 7 6 5 5 4 4 4 4 5 4 4 4 4 4
0 1 1 2 2 3 4 5 7 8 8 7 7 6 6 6 6 6 5 9 8 11 12 10 8 6 8 8 12 13 12 11 10 7 5 5 5 5 5 5 5 5 5
Wind_Direction
212 202 205 201 200 201 203 204 200 200 198 194 195 197 202 202 204 208 210 210 212 211 214 220 227 224 228 234 236 236 240 242 247 259 266 260 252 251 250 251 257 256 258
212 204 202 198 199 198 200 199 200 199 198 201 198 199 198 201 204 201 208 210 211 210 212 219 223 223 231 238 238 232 237 239 218 236 269 276 259 230 236 245 251 265 264
218 210 201 196 198 198 199 196 197 200 201 201 192 177 179 186 196 201 203 208 210 212 214 220 225 226 228 236 238 233 235 243 230 225 239 260 271 290 211 223 245 262 266
218 214 207 198 195 197 195 195 193 194 197 197 199 198 201 206 206 201 194 196 203 211 219 226 229 230 229 236 240 235 236 242 243 230 234 249 273 274 272 220 228 253 276
218 215 211 202 188 183 186 184 182 182 188 197 202 207 212 211 196 189 193 195 191 204 219 231 233 233 234 239 243 241 238 237 244 240 231 236 243 245 257 264 248 228 218
221 216 209 193 181 173 173 171 171 169 175 185 193 200 203 198 192 195 198 199 196 196 215 237 238 240 241 243 246 246 244 243 246 245 239 235 234 230 236 251 256 254 215
222 215 205 195 187 178 171 167 167 164 166 170 177 184 191 195 203 203 203 203 203 203 213 233 245 247 251 251 247 243 243 244 244 245 245 244 248 253 247 254 258 252 220
219 213 206 198 188 179 172 168 167 164 162 163 161 161 167 178 188 197 196 200 208 209 227 233 239 250 255 254 248 245 243 245 243 247 247 246 254 255 238 240 238 237 220
218 210 200 193 184 177 174 169 164 158 156 157 156 153 157 163 166 168 173 179 181 184 228 234 238 256 271 264 252 234 229 215 222 234 221 201 86 42 309 252 240 240 239
206 198 188 180 174 168 163 162 160 152 147 148 143 138 144 149 154 161 160 155 149 159 182 183 179 3 346 344 173 165 159 135 102 93 114 94 78 74 58 59 265 259 255
192 183 174 167 162 158 158 157 153 148 146 144 139 138 132 128 134 136 134 133 130 133 146 139 130 110 90 91 122 121 123 118 101 90 97 89 80 84 72 71 83 76 183
180 173 166 163 162 161 159 157 155 152 147 142 139 133 129 132 133 127 120 119 119 109 103 107 108 94 85 92 115 113 109 114 110 103 101 95 91 83 72 77 81 75 57
173 172 171 172 171 169 166 162 160 155 149 147 145 141 141 141 136 129 124 120 117 111 104 108 106 101 97 97 100 106 102 98 95 96 99 99 99 90 80 77 79 76 73
185 183 182 181 178 175 172 168 164 159 155 154 154 152 148 144 138 132 129 123 120 117 109 104 102 102 101 104 107 108 105 99 92 86 86 86 90 95 94 84 82 87 92
202 197 194 188 183 180 178 174 168 164 162 161 160 156 148 143 143 139 134 130 124 118 116 114 111 112 109 113 119 115 112 108 101 92 85 82 84 83 80 81 84 90 100
215 209 203 198 193 190 185 179 176 170 168 169 166 157 155 153 152 148 145 140 134 130 127 124 124 119 110 120 121 120 115 112 111 105 96 91 86 87 85 80 72 65 83
222 213 208 204 201 195 188 185 178 169 172 173 168 166 165 162 160 157 155 150 144 138 132 127 124 119 121 128 125 121 117 114 112 114 110 98 91 90 93 89 85 75 64
227 217 210 205 201 192 186 180 170 171 174 175 174 174 172 168 165 165 163 157 149 145 137 131 127 120 122 128 127 124 116 113 114 115 117 120 117 106 112 110 97 88 78
232 219 206 199 189 183 177 171 172 176 179 182 181 179 176 173 173 173 167 159 153 147 144 138 139 134 133 138 138 137 129 126 123 119 122 129 127 124 132 133 127 121 107
219 202 184 176 178 175 170 174 178 182 189 188 183 179 179 179 180 178 168 160 156 153 151 145 150 151 150 152 155 157 148 146 143 145 142 141 147 146 163 169 168 172 148
151 161 162 168 173 167 171 181 184 193 189 177 175 177 181 183 179 172 167 161 158 157 161 159 164 168 168 167 171 176 178 168 166 170 175 166 170 178 179 203 207 198 205
102 137 152 153 157 167 176 184 192 184 169 170 174 178 180 177 173 170 166 167 165 168 172 174 177 182 184 191 188 190 194 187 184 187 188 184 199 213 203 211 208 199 214
96 117 143 145 156 175 185 189 183 165 167 172 177 178 179 179 176 177 173 172 177 182 183 187 192 191 194 199 205 202 197 195 200 195 197 205 208 210 214 216 211 209 227
101 118 143 158 171 182 194 193 171 169 173 179 180 179 181 181 181 183 183 184 187 191 192 196 200 197 198 200 200 202 201 200 202 199 199 209 210 221 228 216 215 229 242
108 151 181 195 194 188 194 186 175 174 179 184 184 184 187 186 186 191 196 199 203 202 199 202 201 200 206 208 205 200 202 200 198 191 200 209 211 216 217 221 226 226 226
148 194 221 229 218 205 203 191 183 182 183 187 190 189 189 190 190 192 200 214 216 216 218 217 211 216 223 212 211 214 215 212 205 204 218 221 222 226 227 226 226 225 226